TimeEST,TemperatureF,Dew PointF,Humidity,Sea Level PressureIn,VisibilityMPH,Wind Direction,Wind SpeedMPH,Gust SpeedMPH,PrecipitationIn,Events,Conditions,WindDirDegrees,DateUTC
12:15 AM,44.6,44.6,100,30.16,1.2,Calm,Calm,-,N/A,Rain,Light Rain,0,2013-11-22 05:15:00
12:34 AM,44.6,44.6,100,30.16,1.0,Calm,Calm,-,N/A,,Overcast,0,2013-11-22 05:34:00
12:55 AM,44.6,44.6,100,30.16,1.2,Calm,Calm,-,N/A,Rain,Light Rain,0,2013-11-22 05:55:00
1:15 AM,44.6,44.6,100,30.16,2.0,Calm,Calm,-,N/A,,Overcast,0,2013-11-22 06:15:00
1:34 AM,44.6,44.6,100,30.16,2.0,Calm,Calm,-,N/A,,Overcast,0,2013-11-22 06:34:00
1:55 AM,44.6,44.6,100,30.14,1.5,Calm,Calm,-,N/A,,Overcast,0,2013-11-22 06:55:00
2:15 AM,44.6,44.6,100,30.14,2.0,Calm,Calm,-,N/A,,Overcast,0,2013-11-22 07:15:00
2:34 AM,44.6,44.6,100,30.15,1.5,Calm,Calm,-,N/A,,Overcast,0,2013-11-22 07:34:00
2:55 AM,44.6,44.6,100,30.16,1.0,Calm,Calm,-,N/A,,Overcast,0,2013-11-22 07:55:00
3:15 AM,44.6,44.6,100,30.15,1.0,Calm,Calm,-,N/A,,Overcast,0,2013-11-22 08:15:00
3:34 AM,44.6,44.6,100,30.14,0.8,Calm,Calm,-,N/A,,Overcast,0,2013-11-22 08:34:00
3:55 AM,44.6,44.6,100,30.14,1.0,Calm,Calm,-,N/A,,Overcast,0,2013-11-22 08:55:00
4:15 AM,44.6,44.6,100,30.16,0.8,Calm,Calm,-,N/A,,Overcast,0,2013-11-22 09:15:00
4:34 AM,44.6,44.6,100,30.15,0.2,Calm,Calm,-,N/A,Fog,Fog,0,2013-11-22 09:34:00
4:55 AM,44.6,44.6,100,30.15,0.2,Calm,Calm,-,N/A,Fog,Fog,0,2013-11-22 09:55:00
5:15 AM,44.6,44.6,100,30.15,0.8,Calm,Calm,-,N/A,,Overcast,0,2013-11-22 10:15:00
5:34 AM,44.6,44.6,100,30.16,1.2,NW,11.5,-,N/A,,Overcast,320,2013-11-22 10:34:00
5:55 AM,42.8,42.8,100,30.16,2.5,NNW,10.4,-,N/A,Rain,Light Rain,330,2013-11-22 10:55:00
6:14 AM,42.8,42.8,100,30.17,2.5,NW,4.6,-,N/A,Rain,Light Rain,310,2013-11-22 11:14:00
6:35 AM,42.8,42.8,100,30.16,3.0,Calm,Calm,-,N/A,,Light Drizzle,0,2013-11-22 11:35:00
6:55 AM,42.8,42.8,100,30.17,3.0,Calm,Calm,-,N/A,Rain,Light Rain,0,2013-11-22 11:55:00
7:15 AM,42.8,42.8,100,30.17,3.0,Calm,Calm,-,N/A,Rain,Light Rain,0,2013-11-22 12:15:00
7:35 AM,42.8,42.8,100,30.17,4.0,NW,4.6,-,N/A,,Light Drizzle,310,2013-11-22 12:35:00
7:54 AM,42.8,41.0,93,30.18,4.0,Calm,Calm,-,N/A,,Overcast,0,2013-11-22 12:54:00
8:15 AM,42.8,41.0,93,30.19,4.0,NW,6.9,-,N/A,,Overcast,310,2013-11-22 13:15:00
8:35 AM,42.8,41.0,93,30.19,3.0,NW,5.8,-,N/A,,Overcast,310,2013-11-22 13:35:00
8:54 AM,42.8,41.0,93,30.19,4.0,WNW,6.9,-,N/A,,Overcast,300,2013-11-22 13:54:00
9:15 AM,42.8,41.0,93,30.21,2.5,WNW,5.8,-,N/A,,Overcast,300,2013-11-22 14:15:00
9:35 AM,42.8,41.0,93,30.22,3.0,WNW,9.2,-,N/A,,Overcast,290,2013-11-22 14:35:00
9:54 AM,42.8,39.2,87,30.22,7.0,WNW,9.2,16.1,N/A,,Overcast,300,2013-11-22 14:54:00
10:15 AM,41.0,39.2,93,30.23,7.0,NW,11.5,-,N/A,,Overcast,310,2013-11-22 15:15:00
10:35 AM,41.0,39.2,93,30.24,5.0,NW,9.2,-,N/A,,Overcast,310,2013-11-22 15:35:00
10:54 AM,39.2,39.2,100,30.24,2.5,NW,13.8,19.6,N/A,,Overcast,320,2013-11-22 15:54:00
11:15 AM,39.2,37.4,93,30.25,7.0,NNW,18.4,24.2,N/A,,Overcast,340,2013-11-22 16:15:00
11:35 AM,37.4,37.4,100,30.27,10.0,NW,17.3,25.3,N/A,,Overcast,320,2013-11-22 16:35:00
11:55 AM,37.4,35.6,93,30.28,10.0,NW,8.1,23.0,N/A,,Overcast,310,2013-11-22 16:55:00
12:14 PM,37.4,35.6,93,30.27,10.0,NNW,13.8,19.6,N/A,,Overcast,330,2013-11-22 17:14:00
12:35 PM,37.4,35.6,93,30.27,10.0,North,13.8,18.4,N/A,,Overcast,350,2013-11-22 17:35:00
12:54 PM,37.4,33.8,87,30.27,10.0,NNW,10.4,17.3,N/A,,Overcast,330,2013-11-22 17:54:00
1:15 PM,37.4,33.8,87,30.28,10.0,NNW,16.1,21.9,N/A,,Overcast,330,2013-11-22 18:15:00
1:35 PM,37.4,33.8,87,30.28,10.0,NNW,13.8,23.0,N/A,,Overcast,340,2013-11-22 18:35:00
1:55 PM,37.4,33.8,87,30.29,10.0,North,13.8,18.4,N/A,,Overcast,350,2013-11-22 18:55:00
2:15 PM,37.4,32.0,81,30.28,10.0,North,11.5,18.4,N/A,,Overcast,350,2013-11-22 19:15:00
2:34 PM,37.4,32.0,81,30.29,10.0,North,12.7,17.3,N/A,,Overcast,350,2013-11-22 19:34:00
2:55 PM,37.4,30.2,75,30.29,10.0,NNW,13.8,18.4,N/A,,Scattered Clouds,330,2013-11-22 19:55:00
3:15 PM,37.4,30.2,75,30.29,10.0,North,9.2,-,N/A,,Mostly Cloudy,350,2013-11-22 20:15:00
3:34 PM,37.4,30.2,75,30.30,10.0,NNW,12.7,18.4,N/A,,Scattered Clouds,340,2013-11-22 20:34:00
3:55 PM,37.4,28.4,70,30.31,10.0,NNW,16.1,20.7,N/A,,Mostly Cloudy,330,2013-11-22 20:55:00
4:15 PM,37.4,28.4,70,30.33,10.0,NNW,13.8,23.0,N/A,,Overcast,330,2013-11-22 21:15:00
4:34 PM,37.4,28.4,70,30.33,10.0,NNW,15.0,21.9,N/A,,Mostly Cloudy,340,2013-11-22 21:34:00
4:55 PM,37.4,28.4,70,30.34,10.0,NNW,17.3,23.0,N/A,,Overcast,330,2013-11-22 21:55:00
5:15 PM,35.6,28.4,75,30.36,10.0,NNW,16.1,23.0,N/A,,Overcast,330,2013-11-22 22:15:00
5:34 PM,35.6,28.4,75,30.36,10.0,NNW,13.8,21.9,N/A,,Overcast,340,2013-11-22 22:34:00
5:55 PM,35.6,26.6,70,30.37,10.0,NNW,11.5,25.3,N/A,,Overcast,340,2013-11-22 22:55:00
6:15 PM,35.6,26.6,70,30.37,10.0,NNW,11.5,17.3,N/A,,Overcast,340,2013-11-22 23:15:00
6:34 PM,33.8,26.6,75,30.38,10.0,North,10.4,-,N/A,,Mostly Cloudy,360,2013-11-22 23:34:00
6:55 PM,33.8,26.6,75,30.39,10.0,North,6.9,-,N/A,,Scattered Clouds,350,2013-11-22 23:55:00
7:14 PM,33.8,26.6,75,30.39,10.0,North,5.8,-,N/A,,Clear,350,2013-11-23 00:14:00
7:35 PM,32.0,26.6,80,30.39,10.0,NNW,8.1,-,N/A,,Clear,340,2013-11-23 00:35:00
7:55 PM,32.0,26.6,80,30.38,10.0,NNW,6.9,-,N/A,,Clear,340,2013-11-23 00:55:00
8:14 PM,30.2,26.6,86,30.38,10.0,NNW,3.5,-,N/A,,Clear,340,2013-11-23 01:14:00
8:35 PM,30.2,24.8,80,30.38,10.0,Calm,Calm,-,N/A,,Clear,0,2013-11-23 01:35:00
8:54 PM,30.2,24.8,80,30.39,10.0,Calm,Calm,-,N/A,,Clear,0,2013-11-23 01:54:00
9:15 PM,28.4,24.8,86,30.38,10.0,Calm,Calm,-,N/A,,Clear,0,2013-11-23 02:15:00
9:34 PM,28.4,24.8,86,30.38,10.0,Calm,Calm,-,N/A,,Clear,0,2013-11-23 02:34:00
9:55 PM,26.6,24.8,93,30.39,10.0,Calm,Calm,-,N/A,,Clear,0,2013-11-23 02:55:00
10:15 PM,28.4,26.6,93,30.38,10.0,Calm,Calm,-,N/A,,Clear,0,2013-11-23 03:15:00
10:34 PM,28.4,24.8,86,30.38,10.0,Calm,Calm,-,N/A,,Clear,0,2013-11-23 03:34:00
10:55 PM,28.4,26.6,93,30.38,10.0,Calm,Calm,-,N/A,,Clear,0,2013-11-23 03:55:00
11:15 PM,28.4,26.6,93,30.38,10.0,Calm,Calm,-,N/A,,Clear,0,2013-11-23 04:15:00
11:34 PM,26.6,24.8,93,30.39,10.0,Calm,Calm,-,N/A,,Clear,0,2013-11-23 04:34:00
11:55 PM,26.6,24.8,93,30.39,10.0,Calm,Calm,-,N/A,,Clear,0,2013-11-23 04:55:00